User: anonymous   Login
Location: London
(51.5074°N, 0.1278°W)
Time: 15:42:38
(UTC+01:00)
Language:

Tiangong - Orbit

View from above orbital plane
View from above orbital plane
View from above satellite
View from above satellite

Ground track
Ground track

The orbit data is extracted from the following two-line orbital elements,

1 48274U 21035A   21293.23278380  .00014085  00000-0  16312-3 0  9990
2 48274  41.4698 240.4556 0001879 264.1971 242.2472 15.61548929 27259
Epoch (UTC): 20 October 2021 05:35:12
Eccentricity: 0.0001879
inclination: 41.4698°
perigee height: 382 km
apogee height: 384 km
right ascension of ascending node: 240.4556°
argument of perigee: 264.1971°
revolutions per day: 15.61548929
mean anomaly at epoch: 242.2472°
orbit number at epoch: 2725

The dashed part of the orbit path shows where the satellite is in the earth's shadow,  

DLR